| time (UTC) | temp C | wind direction | speed KPH | gust KPH | rain 1hr cm | rain 24hr cm | rain mn cm | humidity % | barometer mb |
| 20260503211600 | 20 | 285 | 4.8 | 16.1 | 0.00 | 0.00 | 0.00 | 57 | 1011.2 |
| 20260503210100 | 20 | 339 | 1.6 | 17.7 | 0.00 | 0.00 | 0.00 | 57 | 1011.3 |
| 20260503204603 | 20 | 240 | 1.6 | 12.9 | 0.00 | 0.00 | 0.00 | 55 | 1011.3 |
| 20260503203103 | 20 | 308 | 0.0 | 16.1 | 0.00 | 0.00 | 0.00 | 56 | 1011.4 |
| 20260503201558 | 20 | 258 | 4.8 | 24.1 | 0.00 | 0.00 | 0.00 | 54 | 1011.6 |
| 20260503200059 | 19 | 289 | 0.0 | 17.7 | 0.00 | 0.00 | 0.00 | 58 | 1011.5 |
| 20260503194559 | 18 | 293 | 1.6 | 14.5 | 0.00 | 0.00 | 0.00 | 59 | 1011.6 |
| 20260503193111 | 18 | 328 | 1.6 | 12.9 | 0.00 | 0.00 | 0.00 | 60 | 1011.7 |
| 20260503191517 | 17 | 234 | 3.2 | 12.9 | 0.00 | 0.00 | 0.00 | 62 | 1011.9 |
| 20260503190110 | 17 | 266 | 3.2 | 11.3 | 0.00 | 0.00 | 0.00 | 64 | 1012.0 |
| 20260503184507 | 17 | 231 | 0.0 | 12.9 | 0.00 | 0.00 | 0.00 | 65 | 1012.1 |
| 20260503183008 | 17 | 258 | 6.4 | 16.1 | 0.00 | 0.00 | 0.00 | 65 | 1012.2 |
| 20260503181504 | 17 | 349 | 3.2 | 12.9 | 0.00 | 0.00 | 0.00 | 65 | 1012.1 |
| 20260503180007 | 17 | 306 | 4.8 | 14.5 | 0.00 | 0.00 | 0.00 | 66 | 1012.0 |
| 20260503174502 | 16 | 296 | 1.6 | 14.5 | 0.00 | 0.00 | 0.00 | 66 | 1012.2 |
| 20260503173002 | 16 | 285 | 1.6 | 12.9 | 0.00 | 0.00 | 0.00 | 68 | 1012.0 |
| 20260503171501 | 15 | 193 | 1.6 | 16.1 | 0.00 | 0.00 | 0.00 | 71 | 1011.9 |
| 20260503100110 | 11 | 187 | 0.0 | 0.0 | 0.00 | 0.00 | 0.00 | 89 | 1009.3 |
| 20260503090106 | 11 | 191 | 0.0 | 0.0 | 0.00 | 0.00 | 0.00 | 89 | 1009.5 |
| 20260503081615 | 11 | 190 | 0.0 | 0.0 | 0.00 | 0.00 | 0.00 | 87 | 1009.9 |
| 20260503080104 | 11 | 188 | 0.0 | 3.2 | 0.00 | 0.00 | 0.00 | 87 | 1010.0 |
| 20260503071517 | 12 | 191 | 0.0 | 0.0 | 0.00 | 0.00 | 0.00 | 87 | 1010.3 |
| 20260503054537 | 13 | 285 | 0.0 | 0.0 | 0.00 | 0.00 | 0.00 | 81 | 1010.5 |
| 20260503053029 | 13 | 296 | 0.0 | 0.0 | 0.00 | 0.00 | 0.00 | 80 | 1010.5 |
| 20260503051550 | 13 | 245 | 0.0 | 0.0 | 0.00 | 0.00 | 0.00 | 80 | 1010.5 |
| 20260503050044 | 13 | 278 | 0.0 | 4.8 | 0.00 | 0.00 | 0.00 | 79 | 1010.5 |
| 20260503044544 | 14 | 308 | 0.0 | 1.6 | 0.00 | 0.00 | 0.00 | 79 | 1010.3 |
| 20260503043043 | 14 | 285 | 0.0 | 0.0 | 0.00 | 0.00 | 0.00 | 79 | 1010.1 |
| 20260503041543 | 15 | 285 | 0.0 | 0.0 | 0.00 | 0.00 | 0.00 | 77 | 1009.9 |
| 20260503040058 | 15 | 333 | 0.0 | 1.6 | 0.00 | 0.00 | 0.00 | 75 | 1009.8 |
| 20260503034558 | 15 | 309 | 0.0 | 3.2 | 0.00 | 0.00 | 0.00 | 74 | 1009.6 |
| 20260503033101 | 16 | 299 | 0.0 | 8.0 | 0.00 | 0.00 | 0.00 | 72 | 1009.4 |
| 20260503031558 | 16 | 290 | 0.0 | 9.7 | 0.00 | 0.00 | 0.00 | 70 | 1009.3 |
| 20260503030058 | 17 | 301 | 0.0 | 6.4 | 0.00 | 0.00 | 0.00 | 70 | 1009.2 |
| 20260503024605 | 17 | 309 | 0.0 | 6.4 | 0.00 | 0.00 | 0.00 | 70 | 1009.2 |
| 20260503023103 | 18 | 316 | 0.0 | 8.0 | 0.00 | 0.00 | 0.00 | 68 | 1009.1 |
| 20260503021601 | 18 | 309 | 0.0 | 4.8 | 0.00 | 0.00 | 0.00 | 66 | 1009.0 |
| 20260503020101 | 19 | 300 | 0.0 | 3.2 | 0.00 | 0.00 | 0.00 | 63 | 1009.0 |
| 20260503014623 | 19 | 321 | 0.0 | 9.7 | 0.00 | 0.00 | 0.00 | 61 | 1009.0 |
| 20260503013059 | 20 | 304 | 1.6 | 9.7 | 0.00 | 0.00 | 0.00 | 59 | 1009.1 |
| 20260503011513 | 20 | 325 | 1.6 | 9.7 | 0.00 | 0.00 | 0.00 | 57 | 1009.0 |
| 20260503010016 | 21 | 264 | 0.0 | 9.7 | 0.00 | 0.00 | 0.00 | 58 | 1009.0 |
| 20260503004523 | 21 | 231 | 1.6 | 8.0 | 0.00 | 0.00 | 0.00 | 57 | 1008.9 |
| 20260503003014 | 21 | 318 | 0.0 | 8.0 | 0.00 | 0.00 | 0.00 | 58 | 1009.1 |
| 20260503001512 | 21 | 335 | 0.0 | 11.3 | 0.00 | 0.00 | 0.00 | 57 | 1009.1 |
| 20260503000012 | 22 | 328 | 1.6 | 11.3 | 0.00 | 0.00 | 0.00 | 57 | 1009.2 |
| 20260502234512 | 22 | 13 | 0.0 | 11.3 | 0.00 | 0.00 | 0.00 | 53 | 1009.3 |
| 20260502233013 | 22 | 273 | 0.0 | 6.4 | 0.00 | 0.00 | 0.00 | 52 | 1009.4 |
| 20260502231516 | 22 | 331 | 1.6 | 12.9 | 0.00 | 0.00 | 0.00 | 52 | 1009.5 |
| 20260502230027 | 22 | 304 | 3.2 | 11.3 | 0.00 | 0.00 | 0.00 | 53 | 1009.7 |
| 20260502224548 | 22 | 276 | 0.0 | 4.8 | 0.00 | 0.00 | 0.00 | 53 | 1009.9 |
| 20260502223043 | 22 | 325 | 1.6 | 11.3 | 0.00 | 0.00 | 0.00 | 55 | 1010.0 |
| 20260502221542 | 22 | 308 | 0.0 | 8.0 | 0.00 | 0.00 | 0.00 | 55 | 1010.3 |
| 20260502220043 | 22 | 4 | 0.0 | 12.9 | 0.00 | 0.00 | 0.00 | 55 | 1010.5 |
| 20260502214542 | 22 | 297 | 0.0 | 9.7 | 0.00 | 0.00 | 0.00 | 56 | 1010.7 |
| 20260502213042 | 22 | 326 | 1.6 | 9.7 | 0.00 | 0.00 | 0.00 | 54 | 1010.9 |